Location: Woodstock
(35.2731°N, 89.9823°W)
Time: 17:59:57
(UTC+00:00)

Vanguard 3 - Pass Details

Date: 28 May 2025
Orbit: 508 x 3215 km, 33.3° (Epoch: 14 June)

Event Time Altitude Azimuth Distance (km) Brightness Sun altitude
Rises 09:11:52 0° 264° (W) 5,581 - -16.8°
Reaches altitude 10° 09:16:16 10° 263° (W) 4,126 - -16.2°
Exits shadow 09:16:35 11° 263° (W) 4,016 10.2 -16.1°
Maximum altitude 09:26:15 78° 180° (S) 1,144 7.8 -14.7°
Drops below altitude 10° 09:31:49 10° 94° (E) 2,376 10.2 -13.8°
Sets 09:33:45 0° 93° (E) 3,108 10.9 -13.5°
